Location: Peterborough
(44.3091°N, 78.3197°W)
Time: 23:14:53
(UTC-05:00)

Vanguard 1 Rocket - Visible Passes

Search period start: 09 December 2023 00:00
Search period end: 19 December 2023 00:00
Orbit: 655 x 4218 km, 34.3° (Epoch: 09 December)

Date Brightness Start Highest point End Pass type
(mag) Time Alt. Az. Time Alt. Az. Time Alt. Az.
09 Dec 11.1 02:06:07 31° SSE 02:10:17 32° SE 02:26:20 10° E visible
09 Dec 10.4 04:23:27 22° SW 04:39:49 53° SSE 04:53:50 10° E visible
09 Dec 10.0 06:48:53 10° WSW 07:08:18 56° S 07:18:29 10° ESE visible
10 Dec 11.4 00:59:17 23° SE 00:59:17 23° SE 01:11:34 10° E visible
10 Dec 10.7 03:16:35 36° SSW 03:25:44 46° SSE 03:41:45 10° E visible
10 Dec 10.1 05:33:54 12° WSW 05:55:12 59° S 06:07:28 10° ESE visible
10 Dec 11.8 23:52:16 10° ESE 23:52:16 10° ESE 23:52:49 10° ESE visible
11 Dec 10.9 02:09:34 38° SSE 02:11:29 38° SSE 02:28:51 10° E visible
11 Dec 10.4 04:26:51 28° SW 04:41:24 57° S 04:55:59 10° E visible
11 Dec 10.0 06:50:11 10° W 07:10:02 55° SSW 07:20:33 10° ESE visible
12 Dec 11.3 01:02:24 27° ESE 01:02:24 27° ESE 01:14:40 10° E visible
12 Dec 10.6 03:19:41 43° SSW 03:27:07 52° SSE 03:43:56 10° E visible
12 Dec 10.2 05:36:58 15° WSW 05:56:52 60° S 06:09:34 10° ESE visible
12 Dec 11.7 23:55:06 13° ESE 23:55:06 13° ESE 23:58:02 10° E visible
13 Dec 10.8 02:12:23 44° SSE 02:12:40 44° SSE 02:31:08 10° E visible
13 Dec 10.3 04:29:39 32° SW 04:42:57 60° S 04:58:05 10° E visible
13 Dec 10.1 06:51:30 10° W 07:11:40 53° SSW 07:22:32 10° SE visible
14 Dec 11.2 01:04:59 31° ESE 01:04:59 31° ESE 01:17:16 10° E visible
14 Dec 10.5 03:22:15 49° SSW 03:28:29 56° SSE 03:46:01 10° E visible
14 Dec 10.2 05:39:30 18° WSW 05:58:29 60° S 06:11:37 10° ESE visible
14 Dec 11.6 23:57:31 16° E 23:57:31 16° E 00:01:38 10° E visible
15 Dec 10.7 02:14:46 49° SSE 02:14:46 49° SSE 02:33:15 10° E visible
15 Dec 10.3 04:32:01 36° WSW 04:44:29 62° S 05:00:07 10° ESE visible
15 Dec 10.2 06:52:52 10° W 07:13:12 50° SSW 07:24:24 10° SE visible
16 Dec 11.1 01:07:13 34° ESE 01:07:13 34° ESE 01:19:33 10° E visible
16 Dec 10.5 03:24:27 53° SSW 03:29:51 60° SSE 03:48:02 10° E visible
16 Dec 10.2 05:41:42 19° W 06:00:03 59° SSW 06:13:35 10° ESE visible
16 Dec 11.6 23:59:36 18° E 23:59:36 18° E 00:04:27 10° E visible
17 Dec 10.6 02:16:50 53° SSE 02:16:50 53° SSE 02:35:15 10° E visible
17 Dec 10.3 04:34:05 38° WSW 04:45:59 63° S 05:02:06 10° ESE visible
17 Dec 10.3 06:54:15 10° W 07:14:35 47° SSW 07:26:09 10° SE visible
18 Dec 11.0 01:09:11 36° ESE 01:09:11 36° ESE 01:21:37 10° E visible
18 Dec 10.4 03:26:25 57° SSW 03:31:13 63° S 03:49:59 10° E visible
18 Dec 10.3 05:43:39 20° W 06:01:30 57° SSW 06:15:27 10° SE visible
